{"data":{"norad_id":55690,"epoch":"2026-09-21T23:19:05.443392Z","epoch_age_seconds":50440,"freshness":"FRESH","line1":"1 55690U 23025A   26264.97159078  .00003226  00000+0  13818-3 0  9999","line2":"2 55690  97.3386 337.4862 0002049 121.7332 238.4105 15.23486455198789","mean_motion":15.23486455,"eccentricity":0.0002049,"inclination_deg":97.3386,"raan_deg":337.4862,"arg_perigee_deg":121.7332,"mean_anomaly_deg":238.4105,"bstar":0.00013818,"rev_number":19878,"period_min":94.520039562807,"perigee_km":493.92570626974,"apogee_km":496.74245471852,"semimajor_km":6873.4710804941,"source":"CELESTRAK","updated_at":"2026-09-22T09:00:25.517625Z"}}